This is the latest recevied weather packets stored in our database for station/object KB9GXK. If no packets are shown the sender has not sent any weather packets the latest 10 day(s).
| Time | Temp. | Humidity | Pressure | Rain* | Wind** | Luminosity | Snow |
|---|---|---|---|---|---|---|---|
| 1778029185 | 10.56° C | 43% | 1009.2 hPa | 0 mm | - | 1 W/m² | - |
| 1778028884 | 11.11° C | 43% | 1009.1 hPa | 0 mm | - | 2 W/m² | - |
| 1778028578 | 11.11° C | 42% | 1009 hPa | 0 mm | - | 5 W/m² | - |
| 1778028277 | 11.11° C | 43% | 1009.3 hPa | 0 mm | - | 8 W/m² | - |
| 1778027973 | 11.67° C | 42% | 1009.1 hPa | 0 mm | - | 10 W/m² | - |
| 1778027669 | 11.67° C | 41% | 1009.2 hPa | 0 mm | - | 13 W/m² | - |
| 1778027366 | 12.22° C | 40% | 1009.1 hPa | 0 mm | - | 15 W/m² | - |
| 1778027062 | 12.22° C | 39% | 1008.9 hPa | 0 mm | - | 16 W/m² | - |
| 1778026757 | 12.22° C | 39% | 1008.9 hPa | 0 mm | - | 24 W/m² | - |
| 1778026455 | 12.78° C | 37% | 1009.1 hPa | 0 mm | - | 31 W/m² | - |
| 1778026152 | 12.78° C | 38% | 1009.2 hPa | 0 mm | - | 30 W/m² | - |
| 1778025849 | 12.78° C | 37% | 1008.9 hPa | 0 mm | - | 32 W/m² | - |
| 1778025546 | 12.78° C | 38% | 1008.9 hPa | 0 mm | - | 34 W/m² | - |
| 1778025244 | 12.78° C | 37% | 1009.1 hPa | 0 mm | - | 37 W/m² | - |
| 1778024941 | 12.78° C | 36% | 1008.9 hPa | 0 mm | - | 39 W/m² | - |
| 1778024638 | 13.33° C | 37% | 1009 hPa | 0 mm | - | 47 W/m² | - |
| 1778024335 | 13.33° C | 36% | 1009 hPa | 0 mm | - | 49 W/m² | - |
| 1778024033 | 13.33° C | 35% | 1009.2 hPa | 0 mm | - | 49 W/m² | - |
| 1778023730 | 13.33° C | 35% | 1009.1 hPa | 0 mm | - | 51 W/m² | - |
| 1778023428 | 13.33° C | 37% | 1008.9 hPa | 0 mm | - | 53 W/m² | - |
| 1778023124 | 13.33° C | 35% | 1009 hPa | 0 mm | - | 54 W/m² | - |
| 1778022822 | 13.89° C | 35% | 1009 hPa | 0 mm | - | 55 W/m² | - |
| 1778022520 | 13.89° C | 36% | 1009.1 hPa | 0 mm | - | 61 W/m² | - |
| 1778022217 | 13.89° C | 36% | 1009.1 hPa | 0 mm | - | 67 W/m² | - |
| 1778021913 | 13.89° C | 36% | 1009.2 hPa | 0 mm | - | 74 W/m² | - |
* Rain latest hour (hover to see other rain measurements)
** Current wind speed in m/s (hover to see current wind gust speed)